Regional Weather Roundup
Issued by NWS

Home | Current Version | Previous Version | Text Only | Print | Product List | Glossary On
Versions: 1 2 3 4 5 6 7 8 9 10 11 12 13 14 15 16 17 18 19 20 21 22 23 24 25 26 27 28 29 30 31 32 33 34 35 36 37 38 39 40 41 42 43 44 45 46 47 48 49 50
000
ASUS45 KABQ 291401
RWRNM
NEW MEXICO REGIONAL WEATHER ROUNDUP
NATIONAL WEATHER SERVICE ALBUQUERQUE NM
800 AM MDT WED MAR 29 2017

NOTE: "FAIR" MEANS FEW OR NO CLOUDS BELOW 12,000 FEET AGL WITH NO
       SIGNIFICANT WEATHER OR OBSTRUCTIONS TO VISION.

      THIS PRODUCT IS RELEASED AS TWO VERSIONS.  ONE VERSION NEAR
      THE TOP OF THE HOUR CONTAINING PRELIMINARY DATA FROM ALBUQUERQUE
      AND OTHER STATIONS.  A FINAL VERSION WITH ADDITIONAL DATA IS
      ISSUED ABOUT 10 MINUTES AFTER THE HOUR.

NMZ501-503-504-510>518-291500-
NORTHWEST PLATEAU/NORTHCENTRAL MOUNTAINS

CITY           SKY/WX    TMP DP  RH WIND       PRES   REMARKS
FARMINGTON     FAIR      37  29  72 W3        29.98R
LOS ALAMOS     FAIR      37  32  81 N18G25    29.96S WCI  27
SANTA FE       FAIR      38  37  97 N13       29.92R WCI  30
TAOS             N/A     34  25  69 N12       29.96R WCI  25
ANGEL FIRE     FAIR      30  24  78 N14       29.96R WCI  19

$$
NMZ402-403-502-505>509-291500-
WESTCENTRAL MOUNTAINS/SOUTHWEST MOUNTAINS

CITY           SKY/WX    TMP DP  RH WIND       PRES   REMARKS
GALLUP         FAIR      34  29  82 SW3       30.03R
GRANTS         CLOUDY    37  33  83 N8G21     30.04R WCI  31
SILVER CITY    CLOUDY    41  33  74 NW3       29.96R

$$
NMZ407-409-411-412-291500-
SOUTHERN DESERTS

CITY           SKY/WX    TMP DP  RH WIND       PRES   REMARKS
DEMING         FAIR      46  35  65 NW13      29.93R
LAS CRUCES     PTSUNNY   49  35  57 NW7       29.93R
HOLLOMAN AFB   CLOUDY    46  43  91 NW5       29.95R
ALAMOGORDO       N/A    N/A N/A N/A MISG        N/A
T OR C         CLOUDY    45  37  73 N8        29.93R

$$
NMZ519>523-291500-
CENTRAL VALLEYS/CENTRAL HIGHLANDS

CITY           SKY/WX    TMP DP  RH WIND       PRES   REMARKS
ALBUQUERQUE    PTSUNNY   43  39  86 N8        29.95R
DOUBLE EAGLE   PTSUNNY   39  36  87 N9        29.96R WCI  33
MORIARTY ARPT  DRIZZLE   40  38  93 NW7       29.95R
CLINES CORNERS CLOUDY    34  32  92 NW7       29.94R WCI  28
BELEN          CLOUDY    43  40  91 NW7       29.95R
SOCORRO        FAIR      44  37  78 N9        29.96R

$$
NMZ524>526-539-540-291500-
SOUTHCENTRAL MOUNTAINS

CITY           SKY/WX    TMP DP  RH WIND       PRES   REMARKS
RUIDOSO        NOT AVBL

$$
NMZ527>531-291500-
NORTHEAST HIGHLANDS/NORTHEAST PLAINS

CITY           SKY/WX    TMP DP  RH WIND       PRES   REMARKS
LAS VEGAS      CLOUDY    34  30  85 N15       29.91R WCI  24
RATON          FAIR      36  26  67 N30G43    29.90S WCI  23
CLAYTON        LGT RAIN  37  37 100 N22G32    29.88R WCI  26

$$
NMZ532>537-291500-
EASTCENTRAL PLAINS

CITY           SKY/WX    TMP DP  RH WIND       PRES   REMARKS
TUCUMCARI      RAIN      41  38  89 N15       29.88R FOG
CANNON AFB     NOT AVBL
CLOVIS AIRPORT CLOUDY    36  30  80 N25G32    29.83R WCI  23

$$
NMZ028-029-538-291500-
SOUTHEAST PLAINS

CITY           SKY/WX    TMP DP  RH WIND       PRES   REMARKS
ROSWELL        LGT RAIN  46  39  76 N21       29.91R
ARTESIA        PTSUNNY   46  45  93 N16G22    29.88R
CARLSBAD       PTSUNNY   50  42  74 N21       29.85R
HOBBS          MOSUNNY   46  39  76 NW20      29.81R


$$



USA.gov is the U.S. government's official web portal to all federal, state and local government web resources and services.